Date,TemperatureHighF,TemperatureAvgF,TemperatureLowF,DewpointHighF,DewpointAvgF,DewpointLowF,HumidityHigh,HumidityAvg,HumidityLow,PressureMaxIn,PressureMinIn,WindSpeedMaxMPH,WindSpeedAvgMPH,GustSpeedMaxMPH,PrecipitationSumIn
2013-1-1,40.7,38.2,33.2,29.9,28.2,24.1,74,67,59,30.04,29.92,8,1,13,0.00
2013-1-2,34.3,30.2,25.9,25.7,18.6,15.1,71,62,49,30.25,30.01,9,1,15,0.00
2013-1-3,30.4,29.6,28.4,19.7,19.3,18.7,68,65,64,30.19,30.18,6,1,7,0.00
2013-1-4,35.0,33.0,31.8,21.8,21.2,20.9,65,61,58,30.16,30.09,12,4,16,0.00
2013-1-5,34.7,33.8,32.0,26.4,25.5,24.6,77,71,69,30.26,30.20,2,0,4,0.00
2013-1-6,48.4,39.4,28.4,31.9,28.1,25.3,90,66,44,30.22,30.05,10,1,19,0.00
2013-1-7,44.2,37.4,26.3,29.8,26.9,22.3,85,66,52,30.45,30.16,12,1,12,0.00
2013-1-8,52.4,39.9,26.5,33.6,29.5,23.0,88,68,43,30.43,30.38,6,0,9,0.00
2013-1-9,46.1,38.2,27.6,40.7,32.9,24.4,90,82,58,30.41,30.25,7,0,13,0.00
2013-1-10,51.4,44.9,37.8,30.8,29.6,28.5,71,55,42,30.61,30.52,7,1,9,0.00
2013-1-11,43.3,39.6,35.7,40.2,34.4,28.7,95,82,68,30.52,30.12,5,0,7,0.17
2013-1-12,57.9,46.4,40.6,50.0,43.2,39.1,95,89,74,30.18,30.11,5,0,6,0.00
2013-1-13,49.0,45.4,41.9,48.5,44.4,40.3,98,96,91,30.15,29.99,4,0,7,0.00
2013-1-14,57.3,50.4,38.5,56.7,46.6,34.7,98,87,63,30.32,29.95,7,0,14,0.15
2013-1-15,39.3,37.5,32.6,37.1,34.7,31.1,95,90,80,30.33,30.18,4,0,6,0.46
2013-1-16,40.4,35.6,32.5,38.8,34.3,31.0,96,95,92,30.18,29.86,4,0,7,0.63
2013-1-17,42.4,39.6,35.9,38.1,30.8,26.7,91,71,57,30.15,29.99,8,1,12,0.00
2013-1-18,36.1,31.2,26.5,29.1,17.8,10.2,78,58,39,30.50,30.06,15,1,20,0.00
2013-1-19,53.6,39.2,27.1,29.3,25.0,15.7,77,58,37,30.43,29.97,14,3,16,0.00
2013-1-20,54.7,42.3,31.4,32.1,23.2,13.0,67,48,23,30.09,29.83,21,3,26,0.00
2013-1-21,38.2,30.3,25.8,25.5,17.9,10.6,70,60,50,30.11,29.84,15,1,16,0.00
2013-1-22,26.2,17.9,13.7,10.7,0.2,-3.7,56,46,35,30.31,29.96,16,4,22,0.00
2013-1-23,22.5,16.9,10.8,7.9,0.9,-1.8,64,50,35,30.38,30.18,11,2,17,0.00
2013-1-24,25.6,18.6,14.2,12.9,8.1,2.0,86,65,38,30.53,30.14,15,1,19,0.03
2013-1-25,20.6,16.9,14.0,15.3,8.5,2.0,90,70,47,30.53,30.10,7,0,9,0.07
2013-1-26,32.9,23.7,17.7,20.4,17.5,14.9,89,78,58,30.45,30.11,11,0,11,0.00
2013-1-27,35.1,25.8,16.8,21.7,17.8,13.4,90,73,51,30.62,30.46,6,0,9,0.00
2013-1-28,38.4,32.7,28.5,37.1,30.0,21.1,96,90,71,30.52,30.07,10,1,13,0.14
2013-1-29,64.9,49.3,35.6,53.0,44.5,34.0,98,84,65,30.15,30.00,6,0,10,0.00
2013-1-30,68.4,56.1,45.1,60.9,53.6,43.0,97,91,76,29.99,29.27,21,2,23,3.18
2013-1-31,56.3,39.7,27.3,55.4,26.9,11.0,98,61,41,29.90,29.17,26,7,32,0.54
2013-2-1,29.0,24.2,17.0,23.5,11.4,4.2,90,58,44,30.38,29.84,18,3,24,0.01
2013-2-2,26.2,20.7,14.7,23.8,12.4,5.3,92,71,49,30.40,30.05,9,1,12,0.03
2013-2-3,30.8,27.1,20.1,26.8,23.1,16.9,92,85,65,30.04,29.84,14,1,17,0.00
2013-2-4,32.9,28.3,20.4,24.1,17.9,10.9,81,65,52,30.10,29.88,10,1,20,0.00
2013-2-5,36.9,33.0,29.8,30.8,27.4,22.6,90,80,73,29.96,29.88,4,0,5,0.00
2013-2-6,41.3,33.9,28.4,29.8,25.6,19.2,90,72,53,30.37,29.95,13,1,18,0.00
2013-2-7,34.9,30.9,25.0,27.4,21.8,16.4,80,69,49,30.47,30.24,6,0,11,0.00
2013-2-8,38.7,34.6,30.9,37.0,30.9,22.2,96,87,70,30.24,29.76,14,1,29,0.10
2013-2-9,38.9,30.4,25.2,22.4,18.0,16.0,71,60,43,30.41,29.92,18,3,23,0.00
2013-2-10,43.7,31.5,20.0,24.7,16.8,13.5,82,56,30,30.50,30.27,7,1,12,0.00
2013-2-11,50.3,42.1,33.4,47.8,39.2,25.1,97,90,57,30.26,29.70,10,2,13,0.32
2013-2-12,51.8,43.6,32.4,34.2,29.4,26.3,80,58,43,30.01,29.82,15,2,20,0.00
2013-2-13,42.0,34.0,27.0,32.7,28.0,23.5,94,80,59,29.98,29.69,4,0,7,0.22
2013-2-14,46.4,36.7,29.9,32.9,29.6,27.5,95,77,53,30.03,29.78,8,0,10,0.00
2013-2-15,55.4,40.1,29.3,36.7,31.5,26.7,94,74,42,30.05,29.92,11,1,16,0.28
2013-2-16,34.3,32.5,29.5,31.8,28.0,18.1,96,84,61,30.03,29.84,7,0,10,0.00
2013-2-17,30.0,25.4,21.1,19.1,13.5,7.1,82,61,47,30.20,29.84,20,3,24,0.00
2013-2-18,39.4,27.7,17.3,15.3,10.0,6.4,66,48,30,30.40,30.19,8,1,17,0.00
2013-2-19,42.1,36.2,30.6,39.7,28.1,14.6,93,73,50,30.19,29.72,17,2,21,0.18
2013-2-20,34.4,28.4,23.0,22.2,15.1,10.1,64,57,51,30.16,29.85,22,5,22,0.00
2013-2-21,36.5,27.9,21.4,19.3,14.9,11.5,67,58,46,30.36,30.12,16,2,20,0.00
2013-2-22,31.3,29.1,26.7,28.3,21.8,16.4,92,75,63,30.41,30.25,7,1,11,0.00
2013-2-23,45.9,37.8,30.3,43.6,36.1,28.3,96,94,91,30.25,29.83,4,0,7,0.00
2013-2-24,48.5,39.0,29.5,38.6,30.6,20.9,96,74,46,30.12,29.81,15,2,20,0.00
2013-2-25,46.5,35.0,26.8,27.4,23.1,19.5,77,63,42,30.24,30.11,6,0,9,0.00
2013-2-26,40.5,35.0,27.6,39.2,30.8,22.9,95,85,68,30.24,29.66,19,1,22,0.42
2013-2-27,54.3,44.8,37.9,42.3,37.4,32.9,96,77,50,29.70,29.53,12,2,20,0.03
2013-2-28,44.1,40.4,37.7,34.9,30.3,25.6,78,67,50,29.73,29.64,14,3,17,0.00
2013-3-1,43.3,38.3,32.5,31.4,28.4,23.7,78,68,56,29.88,29.71,9,1,17,0.00
2013-3-2,35.7,32.0,28.6,25.2,22.6,20.1,76,68,58,29.89,29.82,12,2,18,0.00
2013-3-3,37.3,31.6,28.3,22.8,20.6,19.2,73,64,54,29.91,29.82,13,2,19,0.00
2013-3-4,40.6,32.0,25.1,22.3,18.4,14.8,67,57,44,30.04,29.91,16,3,20,0.00
2013-3-5,47.9,36.5,27.2,29.4,20.7,16.0,72,54,30,30.09,29.86,9,1,12,0.00
2013-3-6,37.7,34.1,32.1,33.8,31.8,26.2,95,91,65,30.01,29.67,19,2,33,0.52
2013-3-7,47.8,39.5,33.8,31.5,28.5,26.0,85,66,45,30.16,30.01,15,2,23,0.00
2013-3-8,47.6,39.5,32.5,30.1,26.9,23.1,80,61,48,30.28,30.14,17,2,29,0.00
2013-3-9,60.9,44.2,32.4,29.6,24.9,22.0,68,49,23,30.36,30.26,7,1,11,0.00
2013-3-10,61.2,45.6,29.6,35.4,25.1,11.9,81,50,20,30.35,30.23,12,1,16,0.00
2013-3-11,56.4,48.9,41.1,47.6,43.0,35.7,92,80,65,30.25,29.92,11,2,15,0.00
2013-3-12,55.5,49.2,38.4,53.8,43.4,29.5,97,81,59,29.96,29.72,16,3,19,1.09
2013-3-13,47.1,38.2,30.2,30.8,25.3,19.3,84,61,35,30.06,29.90,16,4,25,0.00
2013-3-14,42.4,34.0,29.3,22.4,17.8,15.3,66,52,36,30.11,30.03,16,4,22,0.00
2013-3-15,53.0,42.2,27.4,33.1,24.3,17.0,72,50,34,30.09,29.79,15,2,19,0.00
2013-3-16,46.5,41.3,35.1,37.7,33.4,31.6,88,74,61,29.95,29.68,7,0,11,0.01
2013-3-17,39.9,35.7,32.1,31.8,26.8,21.1,91,71,52,30.30,29.94,7,0,13,0.00
2013-3-18,35.1,33.9,32.9,33.6,26.7,18.3,95,76,53,30.34,29.89,9,1,13,0.37
2013-3-19,55.5,42.2,34.2,39.2,28.9,10.9,95,66,21,29.92,29.73,20,3,27,0.00
2013-3-20,48.7,39.9,29.9,24.8,18.0,14.9,63,42,26,30.00,29.78,18,3,23,0.00
2013-3-21,36.0,31.3,25.9,26.6,15.9,9.0,84,54,36,29.90,29.76,15,2,18,0.00
2013-3-22,43.0,33.4,25.8,22.2,18.1,11.9,65,54,39,30.02,29.87,15,3,18,0.00
2013-3-23,50.1,37.3,26.5,29.4,22.4,19.3,76,56,34,30.04,29.93,13,2,18,0.00
2013-3-24,41.6,34.1,27.6,30.1,23.8,20.3,83,67,48,30.01,29.66,3,0,5,0.00
2013-3-25,35.1,33.5,31.7,30.5,30.1,29.5,93,87,80,29.65,29.57,1,0,4,0.17
2013-3-29,51.9,45.0,40.2,30.5,29.6,27.7,67,55,39,30.17,30.15,1,0,4,0.00
2013-3-30,55.9,37.9,32.2,34.1,28.4,26.5,83,71,33,30.17,30.17,6,0,11,0.00
2013-4-1,40.7,38.3,35.6,22.5,20.3,18.0,51,48,46,30.01,29.94,0,0,3,0.00
2013-4-2,45.1,37.0,29.6,21.8,18.2,15.0,68,48,31,30.17,30.01,13,2,19,0.00
2013-4-3,48.5,36.2,26.4,23.8,17.4,10.8,68,48,25,30.39,30.17,13,2,19,0.00
2013-4-4,48.2,37.1,22.8,32.6,18.0,14.2,81,48,26,30.42,30.05,9,1,12,0.00
2013-4-5,63.9,48.6,36.9,35.1,29.5,19.6,90,54,25,30.08,29.80,12,2,19,0.00
2013-4-6,55.5,44.2,33.3,23.7,20.1,13.7,63,39,23,30.32,30.03,8,1,11,0.00
2013-4-7,67.4,52.3,37.4,41.0,34.4,24.0,79,52,34,30.27,29.97,17,3,23,0.00
2013-4-8,77.9,65.0,50.9,50.9,45.7,40.3,73,51,31,30.06,29.93,10,1,14,0.00
2013-4-9,82.4,70.7,56.5,57.1,52.3,48.3,75,53,36,30.05,29.89,12,2,15,0.00
2013-4-10,88.0,75.0,60.0,61.0,54.7,51.2,74,51,32,29.94,29.74,16,3,25,0.00
2013-4-11,83.1,66.8,53.6,60.6,56.0,50.4,90,71,41,29.87,29.74,10,1,17,0.00
2013-4-12,64.7,53.1,48.6,58.7,51.2,47.5,96,93,81,29.82,29.59,11,1,15,0.42
2013-4-13,65.5,53.3,40.9,47.3,40.7,35.2,94,66,37,29.94,29.77,12,2,14,0.00
2013-4-14,65.0,53.0,39.1,41.5,37.5,34.2,85,58,32,30.13,29.95,10,1,14,0.00
2013-4-15,59.9,55.4,51.7,48.5,45.8,39.8,85,70,58,30.28,30.12,9,1,12,0.00
2013-4-16,73.0,60.9,51.9,58.3,52.9,47.2,87,76,59,30.30,30.09,14,2,19,0.00
2013-4-17,69.8,64.1,58.6,60.3,56.8,53.8,93,78,61,30.22,30.10,7,0,13,0.00
2013-4-18,72.0,61.3,55.9,64.1,56.3,51.2,97,84,67,30.22,30.00,12,1,16,0.24
2013-4-19,74.6,63.7,50.7,65.3,59.3,49.0,95,86,69,30.00,29.58,15,2,19,1.73
2013-4-20,57.4,49.6,43.0,48.9,34.4,27.8,94,58,35,30.34,29.75,17,3,22,0.06
2013-4-21,53.9,44.4,35.7,32.9,26.0,20.8,70,50,29,30.59,30.34,7,1,12,0.00
2013-4-22,56.1,45.5,34.8,36.5,33.6,31.5,90,65,43,30.58,30.41,10,1,14,0.00
2013-4-23,60.5,49.6,43.0,44.3,39.5,33.7,85,69,48,30.42,30.12,6,0,8,0.00
2013-4-24,74.8,59.5,43.6,58.3,49.7,40.7,95,73,45,30.12,29.76,13,2,22,0.00
2013-4-25,62.0,51.6,42.4,48.4,34.7,27.7,74,54,30,30.30,29.97,15,2,21,0.00
2013-4-26,63.2,51.6,40.5,38.0,34.9,29.1,82,56,31,30.45,30.29,10,1,14,0.00
2013-4-27,69.3,54.4,38.0,41.5,36.0,33.7,87,54,29,30.42,30.28,7,0,9,0.00
2013-4-28,65.6,55.4,42.6,43.2,39.3,31.3,88,57,36,30.28,30.13,9,1,17,0.00
2013-4-29,56.9,54.2,50.3,55.5,51.4,39.7,96,91,56,30.15,30.05,7,0,9,0.15
2013-4-30,60.0,55.4,50.9,55.9,52.8,47.3,97,91,80,30.29,30.09,5,0,8,0.03
2013-5-1,69.4,56.2,41.6,47.0,39.6,32.3,89,59,26,30.42,30.29,6,0,9,0.00
2013-5-2,68.8,55.2,42.3,47.9,44.0,40.0,94,69,36,30.43,30.31,6,0,10,0.00
2013-5-3,66.1,54.2,43.8,47.9,42.9,37.8,95,68,38,30.38,30.30,9,1,13,0.00
2013-5-4,66.8,54.6,42.3,44.6,41.9,37.1,92,65,34,30.34,30.17,10,1,12,0.00
2013-5-5,62.4,51.4,42.2,44.8,41.2,37.4,89,70,48,30.24,30.15,6,0,11,0.00
2013-5-6,60.3,52.8,42.3,56.1,49.2,40.2,95,87,82,30.19,30.07,7,0,12,0.00
2013-5-7,61.6,58.4,56.1,60.3,57.2,55.1,97,96,91,30.08,29.95,7,0,13,0.73
2013-5-8,70.5,60.1,55.3,58.0,55.0,50.5,98,84,52,29.99,29.91,9,1,16,0.01
2013-5-9,71.6,60.6,52.4,59.5,55.0,51.3,96,83,60,29.98,29.90,9,1,11,0.00
2013-5-10,82.3,66.4,51.0,61.7,56.7,49.9,98,75,42,30.00,29.85,9,1,12,0.77
2013-5-11,75.4,64.1,59.7,65.0,61.7,58.6,97,92,66,29.90,29.69,8,1,18,0.33
2013-5-12,61.5,55.8,48.1,58.6,40.3,27.5,96,60,31,30.01,29.73,18,3,22,0.00
2013-5-13,57.8,47.6,38.5,34.4,30.2,24.8,83,53,29,30.16,30.01,13,2,19,0.00
2013-5-14,60.4,48.0,32.0,44.3,33.5,28.7,93,60,36,30.21,30.05,11,1,14,0.00
2013-5-15,80.5,62.6,51.9,64.5,53.7,41.6,92,74,54,30.06,29.68,9,1,16,0.04
2013-5-16,78.7,70.9,62.7,64.0,60.3,56.2,87,70,57,29.89,29.73,12,2,16,0.00
2013-5-17,81.5,67.8,53.6,57.2,50.5,39.5,96,59,30,30.13,29.90,6,0,9,0.00
2013-5-18,66.2,60.8,57.3,57.2,53.6,46.1,95,78,55,30.22,30.13,6,0,11,0.05
2013-5-19,66.5,61.7,57.4,63.5,60.1,56.0,98,95,89,30.20,30.09,4,0,7,0.01
2013-5-20,78.5,69.3,63.5,68.3,65.1,62.3,97,87,68,30.11,29.97,6,0,9,0.00
2013-5-21,83.0,72.2,63.8,72.6,67.2,62.6,98,85,67,29.98,29.85,7,1,11,0.00
2013-5-22,87.5,73.5,64.9,73.1,67.3,63.1,98,83,50,29.92,29.80,8,1,12,0.11
2013-5-23,79.2,68.4,62.4,68.4,64.5,60.8,97,88,67,29.87,29.73,16,1,16,0.73
2013-5-24,62.5,54.8,46.6,61.6,49.0,35.2,97,81,62,30.13,29.71,13,2,25,0.07
2013-5-25,63.7,52.6,41.8,43.6,36.6,33.3,77,56,37,30.14,30.06,16,3,22,0.01
2013-5-26,70.4,56.9,46.3,44.6,38.9,34.7,78,53,30,30.20,30.11,11,2,16,0.00
2013-5-27,69.6,57.8,42.8,50.1,43.3,38.8,89,61,36,30.27,30.17,7,1,9,0.00
2013-5-28,75.6,64.3,55.2,65.2,58.6,49.3,96,82,67,30.20,30.06,4,0,6,0.06
2013-5-29,87.0,75.1,62.0,68.0,64.4,60.6,98,72,47,30.10,30.04,12,2,16,0.00
2013-5-30,90.9,77.6,64.8,69.9,65.3,62.5,95,69,41,30.15,30.08,9,1,9,0.00
2013-5-31,89.0,76.9,63.6,67.8,64.3,61.4,96,69,41,30.12,30.00,11,1,14,0.00
2013-6-1,88.8,77.9,65.1,69.7,65.8,62.2,91,68,48,30.01,29.89,9,1,12,0.00
2013-6-2,81.2,74.5,67.1,71.2,66.5,62.7,96,77,66,29.89,29.81,10,2,13,0.20
2013-6-3,78.9,70.6,65.1,68.7,64.4,55.8,97,82,59,29.92,29.80,6,0,14,0.20
2013-6-4,74.7,63.9,54.0,56.5,48.8,44.2,84,60,37,30.12,29.92,6,0,12,0.00
2013-6-5,75.9,64.8,51.3,55.8,52.3,48.7,94,67,42,30.18,30.04,5,0,9,0.00
2013-6-6,69.9,63.9,58.9,63.0,58.4,53.2,97,82,70,30.07,29.87,8,0,10,0.73
2013-6-7,69.0,65.8,62.1,68.4,65.0,61.2,98,98,97,29.87,29.58,6,0,14,1.00
2013-6-8,78.3,68.4,63.1,66.2,62.2,59.6,98,82,57,30.08,29.67,8,1,11,0.00
2013-6-9,79.7,69.7,59.2,67.8,62.7,57.3,95,80,59,30.19,30.08,6,0,9,0.00
2013-6-10,77.6,70.2,66.4,74.8,68.5,64.2,98,95,82,30.10,29.78,8,1,19,1.89
2013-6-11,80.3,71.2,64.5,68.4,65.5,63.6,99,83,63,29.82,29.75,14,2,17,0.00
2013-6-12,85.2,74.2,64.2,70.8,66.5,62.1,94,78,57,29.84,29.76,9,1,12,0.00
2013-6-13,83.3,71.9,66.7,70.4,66.2,57.3,95,83,59,29.80,29.43,20,2,22,0.20
2013-6-14,77.7,66.2,56.6,58.5,55.7,51.2,93,71,43,29.96,29.56,10,1,19,0.02
2013-6-15,80.5,68.0,55.6,62.4,56.5,51.2,95,69,42,30.06,29.96,9,1,15,0.00
2013-6-16,80.4,70.4,59.7,67.6,62.1,56.4,91,76,58,30.02,29.86,12,1,18,0.00
2013-6-17,85.5,75.3,67.2,70.8,65.3,61.7,87,72,53,29.93,29.86,9,1,12,0.00
2013-6-18,72.6,69.1,64.1,71.2,67.4,62.9,97,94,87,29.90,29.78,3,0,6,0.28
2013-6-19,75.1,65.8,60.2,63.5,60.8,57.1,98,85,58,30.14,29.87,2,0,4,0.07
2013-6-20,78.1,66.7,57.1,64.5,59.8,56.0,98,80,55,30.26,30.15,3,0,6,0.11
2013-6-21,81.0,67.8,55.1,61.7,54.8,48.1,93,66,33,30.29,30.23,2,0,6,0.02
2013-6-22,85.3,72.0,58.0,70.3,63.4,56.6,97,76,51,30.24,30.11,4,1,8,0.00
2013-6-23,83.5,72.5,63.6,72.7,67.6,62.0,97,85,66,30.17,30.05,2,0,4,0.12
2013-6-24,89.9,76.1,67.9,73.3,68.0,63.4,97,78,48,30.10,30.00,12,1,12,0.00
2013-6-25,89.5,76.6,65.7,72.9,68.4,64.5,97,78,52,30.01,29.86,5,1,10,0.09
2013-6-26,87.5,73.1,64.4,73.6,68.6,63.4,97,87,61,29.90,29.80,5,1,7,0.25
2013-6-27,82.7,73.8,67.2,75.5,70.3,66.3,98,89,74,29.81,29.58,5,1,9,0.24
2013-6-28,85.5,75.1,68.0,72.8,68.9,65.3,95,82,63,29.60,29.46,5,1,11,0.09
2013-6-29,85.0,74.8,63.9,69.8,64.2,58.9,96,72,44,29.67,29.50,5,1,9,0.00
2013-6-30,84.0,75.1,67.9,74.7,70.9,66.4,97,87,70,29.83,29.68,4,0,8,0.00
2013-7-1,80.9,74.7,69.8,74.3,71.4,68.8,97,90,76,29.97,29.83,4,0,7,0.14
2013-7-2,82.0,74.7,71.7,74.2,71.7,70.5,97,91,74,30.15,29.97,3,1,8,0.11
2013-7-3,84.1,74.5,70.4,75.6,72.1,69.2,98,92,73,30.22,30.15,3,0,5,0.26
2013-7-4,87.9,78.2,71.7,75.8,72.1,70.5,97,83,63,30.24,30.15,5,1,10,0.00
2013-7-5,87.0,79.2,71.1,74.4,71.9,69.7,96,80,60,30.20,30.10,6,1,11,0.00
2013-7-6,90.4,80.3,70.9,75.6,71.5,69.3,96,76,55,30.17,30.04,3,1,7,0.00
2013-7-7,89.0,77.3,68.5,74.6,70.4,67.3,96,81,60,30.09,29.97,6,1,12,0.12
2013-7-8,83.9,73.3,67.9,70.3,68.1,66.2,97,85,57,30.08,30.02,4,1,11,0.02
2013-7-9,81.0,75.3,69.3,73.9,70.5,67.5,94,85,75,30.09,29.98,3,0,6,0.01
2013-7-10,86.0,77.5,72.8,76.0,72.6,68.9,96,85,63,30.00,29.84,6,1,11,0.02
2013-7-11,83.8,75.5,70.4,71.3,69.2,66.3,97,82,58,29.91,29.82,5,0,6,0.08
2013-7-12,72.3,68.7,66.0,68.3,66.5,64.0,97,93,81,30.01,29.89,1,0,5,0.52
2013-7-13,83.0,73.2,67.5,73.8,69.7,66.6,98,89,71,30.27,30.00,1,0,5,0.09
2013-7-14,88.6,80.3,71.3,75.9,72.9,70.2,98,80,57,30.32,30.25,3,1,5,0.01
2013-7-15,92.6,80.0,69.0,76.2,72.1,68.1,98,79,53,30.29,30.16,2,0,6,0.00
2013-7-16,91.7,81.8,74.4,74.6,71.5,68.5,93,73,48,30.22,30.15,2,0,6,0.00
2013-7-17,93.0,81.8,71.6,74.1,70.9,66.2,94,72,44,30.20,30.07,1,0,6,0.00
2013-7-18,94.0,83.1,72.4,78.6,74.9,70.6,94,78,56,30.10,29.98,3,0,5,0.00
2013-7-19,93.8,82.9,74.2,78.7,74.3,67.0,96,77,56,29.99,29.84,5,1,8,0.00
2013-7-20,90.7,79.4,70.5,75.6,71.0,68.1,95,77,57,29.87,29.77,6,2,10,0.08
2013-7-21,87.2,76.1,68.0,74.0,70.6,67.1,98,84,62,29.92,29.85,1,0,3,0.00
2013-7-22,86.5,77.0,70.4,75.9,72.3,68.9,98,86,64,29.92,29.73,6,0,11,0.41
2013-7-23,83.9,75.0,69.2,73.6,69.7,66.8,98,85,60,29.74,29.62,5,1,10,0.04
2013-7-24,82.0,73.3,67.2,69.0,64.9,56.7,92,76,57,29.91,29.66,2,0,7,0.00
2013-7-25,76.4,66.4,57.3,62.4,57.4,52.0,92,74,56,30.02,29.91,1,0,6,0.00
2013-7-26,81.6,69.3,59.8,62.7,59.9,56.8,97,75,47,30.08,30.01,3,0,6,0.00
2013-7-27,81.9,68.7,61.0,69.6,65.0,59.6,98,89,64,30.04,29.92,4,0,10,0.63
2013-7-28,82.0,72.1,66.8,71.0,67.9,64.2,98,88,61,29.97,29.88,4,0,9,0.27
2013-7-29,79.1,72.4,62.0,60.8,58.0,54.9,88,62,45,30.15,30.07,5,1,9,0.04
2013-7-30,79.6,68.2,57.0,62.2,58.1,54.9,94,73,47,30.22,30.13,3,0,7,0.00
2013-7-31,77.8,69.9,60.8,68.1,64.0,59.5,98,83,65,30.15,30.00,2,0,6,0.00
2013-8-1,82.0,71.7,65.8,71.6,67.9,64.6,98,88,64,30.00,29.80,2,0,5,0.08
2013-8-2,82.7,71.9,62.3,68.0,63.9,60.3,98,78,51,29.94,29.83,6,1,10,0.01
2013-8-3,71.3,66.6,63.3,66.2,63.7,61.2,96,90,81,29.95,29.90,3,0,5,0.16
2013-8-4,79.0,68.0,59.1,62.7,58.3,52.4,97,74,46,30.01,29.89,5,1,11,0.00
2013-8-5,77.6,66.6,55.4,60.8,55.6,52.6,92,70,43,30.09,30.01,3,0,5,0.00
2013-8-7,76.4,72.9,68.5,72.6,70.9,67.0,96,93,88,30.03,29.98,7,0,8,1.10
2013-8-8,81.3,73.1,66.7,74.8,70.7,65.3,99,93,77,30.05,29.95,8,1,11,1.09
2013-8-9,84.0,76.7,72.8,76.7,73.4,70.5,98,90,74,29.95,29.35,5,1,11,0.49
2013-8-10,82.1,74.0,67.8,70.6,66.9,61.7,97,80,52,30.08,29.93,2,0,8,0.01
2013-8-11,83.1,72.7,64.8,71.7,66.9,63.6,97,83,63,30.11,30.00,2,0,7,0.00
2013-8-12,85.3,74.9,67.0,72.1,68.3,65.0,96,82,54,30.03,29.91,1,0,7,0.00
2013-8-13,83.6,74.4,69.5,71.8,68.8,61.5,97,84,59,29.91,29.73,4,1,13,0.05
2013-8-14,73.5,64.4,55.7,61.1,52.8,46.9,89,67,50,30.09,29.82,5,1,18,0.00
2013-8-15,76.8,63.3,53.1,56.0,52.1,47.8,91,70,40,30.20,30.09,2,0,8,0.00
2013-8-16,76.9,64.1,52.6,59.7,55.1,50.7,98,75,46,30.21,30.14,1,0,4,0.00
2013-8-17,79.2,66.6,53.9,61.1,57.4,52.8,97,75,46,30.28,30.21,1,0,10,0.00
2013-8-18,71.5,66.2,62.8,63.3,61.0,58.7,95,84,68,30.25,30.17,1,0,7,0.03
2013-8-19,74.3,66.7,59.1,67.1,62.8,57.8,97,88,75,30.19,30.07,2,0,8,0.00
2013-8-20,84.7,72.0,60.2,69.0,64.2,59.3,99,79,49,30.17,30.09,3,0,9,0.00
2013-8-21,86.6,74.0,63.4,74.4,68.4,62.4,98,84,59,30.20,30.06,3,0,11,0.00
2013-8-22,84.0,75.9,68.0,70.8,68.8,63.6,96,80,60,30.08,29.92,5,1,8,0.00
2013-8-23,72.9,68.4,59.6,68.3,64.1,58.2,96,86,74,30.12,29.93,0,0,11,0.04
2013-8-24,80.4,67.4,58.0,64.3,57.9,52.1,97,75,40,30.35,30.12,1,0,3,0.00
2013-8-25,80.5,67.0,55.1,63.7,57.8,54.0,98,75,46,30.42,30.27,2,0,6,0.00
2013-8-26,78.3,64.2,56.9,65.6,58.8,54.6,94,83,65,30.29,29.99,2,0,3,0.00
2013-8-27,87.5,77.2,68.8,72.5,68.8,64.0,92,76,56,29.99,29.86,3,0,9,0.00
2013-8-28,75.0,72.4,69.0,72.3,70.0,67.7,96,92,87,29.91,29.82,3,0,10,0.05
2013-8-29,83.3,73.7,68.8,71.1,68.9,67.2,97,86,63,30.02,29.84,1,0,6,0.02
2013-8-30,84.4,74.6,68.2,71.6,68.5,66.4,96,83,60,30.03,29.88,4,1,9,0.00
2013-8-31,87.5,76.5,67.8,74.2,70.3,66.1,95,82,59,29.89,29.78,4,0,6,0.00
2013-9-1,89.1,77.3,66.8,74.4,70.7,65.6,97,82,57,29.84,29.75,2,0,8,0.00
2013-9-2,87.7,77.6,69.2,72.6,70.4,67.7,96,80,56,29.79,29.71,4,1,8,0.00
2013-9-3,81.7,73.2,64.4,70.9,62.8,54.8,95,72,46,29.95,29.72,5,1,11,0.00
2013-9-4,80.6,66.7,53.8,57.2,54.1,49.2,95,67,36,30.08,29.95,4,0,11,0.00
2013-9-5,79.8,66.6,55.0,63.6,56.2,47.7,96,72,43,30.14,30.01,5,1,15,0.00
2013-9-6,73.9,61.0,51.1,52.2,48.6,45.5,86,66,40,30.26,30.14,3,0,10,0.00
2013-9-7,78.4,62.0,48.9,61.3,54.0,46.8,94,77,48,30.16,29.94,3,0,9,0.00
2013-9-8,84.0,70.8,61.7,67.6,63.3,57.2,96,79,55,30.07,29.89,2,0,9,0.02
2013-9-9,77.0,66.2,56.2,66.0,56.3,47.5,87,71,59,30.21,30.07,2,0,5,0.00
2013-9-10,89.6,77.5,68.8,73.8,70.3,65.9,94,80,56,30.18,30.07,4,1,7,0.00
2013-9-11,91.7,79.4,69.7,77.7,71.8,68.6,97,79,55,30.14,30.00,5,1,12,0.00
2013-9-12,88.8,74.2,67.5,74.7,69.8,66.3,97,87,59,30.00,29.73,3,0,10,0.10
2013-9-13,76.2,66.7,59.3,66.9,57.3,49.5,97,74,42,29.93,29.69,4,1,11,0.01
2013-9-14,68.1,56.9,47.7,50.0,47.0,45.1,93,71,46,30.17,29.93,3,0,8,0.00
2013-9-15,74.5,58.4,42.8,56.2,49.7,41.6,98,76,47,30.24,30.09,3,0,9,0.00
2013-9-16,72.0,61.5,55.7,58.7,55.3,52.2,95,82,56,30.25,30.04,2,0,11,0.06
2013-9-17,66.0,55.3,44.6,52.2,44.2,38.8,91,69,37,30.43,30.25,1,0,8,0.00
2013-9-18,69.8,54.9,41.7,50.4,45.7,40.6,98,75,42,30.36,30.20,3,0,9,0.00
2013-9-19,76.2,59.3,44.9,59.9,52.5,43.6,98,80,53,30.22,30.09,3,0,6,0.00
2013-9-20,79.8,62.8,51.0,62.1,56.6,49.9,98,82,53,30.10,29.96,3,0,9,0.00
2013-9-21,71.9,63.2,58.9,63.9,59.7,56.6,97,89,67,29.98,29.69,3,0,15,0.87
2013-9-22,62.3,56.7,52.6,59.6,54.3,47.6,98,92,62,29.95,29.72,1,0,10,0.00
2013-9-23,65.9,54.6,46.5,47.8,45.4,41.8,92,73,49,30.09,29.95,4,0,10,0.00
2013-9-24,72.2,54.9,41.5,50.8,45.5,40.2,96,75,39,30.12,29.95,2,0,11,0.00
2013-9-25,74.7,58.1,44.5,52.5,46.9,42.1,95,71,35,30.00,29.89,1,0,6,0.29
2013-9-26,72.9,54.9,50.0,54.6,49.8,47.9,93,84,44,30.09,29.94,10,1,10,0.00
2013-9-27,69.1,60.2,52.4,59.4,55.9,50.7,95,86,66,30.26,30.09,1,0,7,0.00
2013-9-28,65.4,56.1,52.4,55.7,53.3,51.0,96,91,68,30.33,30.26,0,0,5,0.00
2013-9-30,73.6,64.7,54.2,56.7,53.8,51.8,94,70,47,30.10,29.99,3,0,8,0.00
2013-10-1,79.2,64.1,51.5,62.0,56.5,50.0,97,79,47,30.07,29.97,4,0,11,0.00
2013-10-2,83.2,67.5,54.0,64.0,59.0,52.9,98,77,47,30.08,30.00,5,1,13,0.00
2013-10-3,81.4,68.3,57.3,66.4,61.6,56.2,97,81,55,30.13,30.04,2,0,8,0.00
2013-10-4,85.3,70.2,58.4,68.5,63.0,57.3,98,81,50,30.09,30.01,2,0,8,0.00
2013-10-5,86.5,73.8,61.9,68.5,65.1,60.7,97,77,50,30.09,30.00,3,0,10,0.00
2013-10-6,86.1,73.0,62.8,70.8,65.5,61.6,98,80,48,30.03,29.91,5,1,17,0.00
2013-10-7,71.1,63.3,52.4,68.7,60.6,46.4,97,91,80,30.05,29.76,11,1,25,1.22
2013-10-8,65.7,53.9,44.0,49.3,46.3,42.6,97,77,49,30.30,30.05,3,0,14,0.00
2013-10-9,58.6,53.4,48.6,50.3,47.7,44.6,94,81,71,30.34,30.23,1,0,12,0.05
2013-10-10,56.4,53.5,50.8,55.8,52.3,49.2,98,96,88,30.23,30.01,3,0,14,1.60
2013-10-11,60.4,57.9,55.2,59.8,57.3,54.6,98,98,97,30.02,29.95,2,0,12,1.59
2013-10-12,65.6,60.9,57.2,59.9,57.6,54.9,98,89,73,30.18,30.00,1,0,7,0.14
2013-10-13,61.8,57.3,55.0,58.4,55.2,51.5,97,93,79,30.34,30.18,0,0,5,0.06
2013-10-14,67.6,57.7,51.9,54.9,52.1,50.3,95,83,57,30.35,30.23,1,0,8,0.00
2013-10-15,71.2,56.6,46.8,54.7,49.1,45.3,98,79,42,30.25,30.10,1,0,7,0.00
2013-10-16,67.2,60.7,54.9,61.3,57.0,50.8,96,88,79,30.10,29.91,1,0,7,0.00
2013-10-17,73.5,63.4,58.1,64.2,60.4,53.9,98,91,68,29.91,29.71,7,0,10,0.08
2013-10-18,64.3,55.5,44.7,53.1,44.5,42.2,93,68,48,30.02,29.82,8,2,23,0.00
2013-10-19,63.6,51.9,42.0,55.5,47.6,40.7,96,86,58,30.01,29.79,3,0,14,0.14
2013-10-20,60.7,49.5,38.8,47.3,39.6,36.1,93,71,43,30.11,29.86,6,1,17,0.02
2013-10-21,65.8,50.6,37.0,45.8,40.4,36.0,97,73,37,30.16,29.97,5,1,14,0.00
2013-10-22,60.0,49.7,41.5,50.0,44.0,37.3,97,82,55,29.98,29.83,4,0,14,0.00
2013-10-23,53.6,45.9,39.0,39.0,36.6,33.6,87,71,49,29.89,29.67,5,0,12,0.00
2013-10-24,49.6,41.9,35.5,35.2,31.6,27.3,87,68,46,30.14,29.90,9,2,20,0.00
2013-10-25,53.4,41.4,31.3,36.1,31.4,28.6,90,69,45,30.33,30.13,7,1,20,0.00
2013-10-26,53.8,42.0,28.5,31.5,29.3,26.0,92,63,39,30.32,29.95,9,2,20,0.00
2013-10-27,58.7,46.4,36.5,38.6,34.5,31.5,88,65,42,30.16,29.96,6,1,16,0.00
2013-10-28,61.9,45.3,31.9,42.2,36.7,30.2,95,75,42,30.30,30.16,2,0,9,0.00
2013-10-29,62.1,47.0,36.5,44.9,39.6,34.3,93,77,46,30.40,30.30,2,0,6,0.00
2013-10-30,66.8,53.8,43.3,55.3,50.1,40.8,97,88,64,30.34,30.15,2,0,8,0.05
2013-10-31,65.7,59.1,53.0,59.4,56.0,51.9,98,90,77,30.20,29.78,2,1,13,0.03
2013-11-1,72.2,63.6,53.9,62.9,57.0,51.6,94,80,49,29.77,29.56,10,2,23,0.53
2013-11-2,66.5,54.8,43.8,52.1,45.3,38.9,96,72,45,29.87,29.65,7,1,18,0.00
2013-11-3,53.8,45.6,35.9,42.8,33.5,24.3,89,65,34,30.47,29.87,5,1,16,0.00
2013-11-4,44.2,36.0,28.0,27.6,23.6,19.5,81,62,40,30.65,30.47,1,0,10,0.00
2013-11-5,56.2,45.3,33.4,46.3,38.1,26.9,85,76,62,30.63,30.48,1,0,9,0.00
2013-11-6,66.5,55.5,44.5,52.0,48.9,42.8,96,79,58,30.48,30.06,5,1,13,0.00
2013-11-7,57.4,52.2,40.0,54.2,46.0,25.6,93,80,52,30.07,29.87,5,2,16,0.08
2013-11-8,49.8,39.7,30.1,32.1,27.2,24.6,86,62,42,30.32,30.07,7,2,19,0.00
2013-11-9,52.3,40.3,26.7,31.0,27.7,23.9,91,64,40,30.36,30.04,6,1,20,0.00
2013-11-10,59.6,46.5,34.2,35.7,30.5,27.8,82,55,36,30.22,29.97,10,3,24,0.00
2013-11-11,54.1,44.5,31.9,33.7,30.2,27.6,87,59,39,30.30,30.02,5,1,13,0.01
2013-11-12,47.7,37.1,26.6,38.4,24.0,14.8,83,59,43,30.40,29.99,5,1,21,0.00
2013-11-13,42.4,32.4,26.6,22.7,20.1,16.7,75,61,44,30.48,30.39,5,1,16,0.00
2013-11-14,56.3,38.5,24.9,23.8,18.3,11.4,78,49,19,30.38,30.24,7,1,15,0.00
2013-11-15,59.2,41.7,27.2,36.4,27.7,22.3,84,61,27,30.29,30.20,2,0,7,0.00
2013-11-16,51.7,46.3,41.0,47.5,44.1,37.1,97,92,72,30.34,30.25,1,0,9,0.09
2013-11-17,60.5,54.9,48.3,57.4,53.1,47.5,98,94,85,30.24,29.72,5,1,12,0.02
2013-11-18,64.7,57.5,46.8,59.4,37.3,24.9,94,51,25,29.93,29.68,11,5,31,0.10
2013-11-19,48.5,41.0,31.9,29.4,26.5,23.4,77,57,44,30.38,29.92,6,2,22,0.00
2013-11-20,45.4,33.4,26.1,23.8,20.4,10.2,84,62,25,30.59,30.37,1,0,8,0.00
2013-11-21,47.3,37.9,26.3,38.4,30.8,21.8,85,76,66,30.60,30.40,1,0,5,0.00
2013-11-22,59.2,50.9,43.7,51.2,45.3,37.9,91,81,70,30.40,30.01,6,0,10,0.00
2013-11-23,53.0,40.8,28.0,47.3,27.5,10.7,81,60,42,30.19,30.04,8,3,22,0.00
2013-11-24,30.7,24.9,20.2,13.8,9.7,6.1,67,52,42,30.52,30.19,10,4,27,0.00
2013-11-25,35.0,26.6,18.9,12.8,10.2,6.6,68,51,31,30.58,30.36,5,1,15,0.00
2013-11-26,46.0,34.3,31.3,45.2,26.0,12.5,97,75,44,30.36,29.60,2,0,8,1.41
2013-11-27,38.6,35.4,27.6,37.1,31.2,16.6,96,85,63,30.01,29.52,8,3,25,0.41
2013-11-28,36.0,29.7,25.0,24.0,17.1,14.0,75,60,41,30.49,30.02,7,3,20,0.00
2013-11-29,40.6,30.7,23.5,24.3,20.6,17.6,83,67,46,30.74,30.48,3,0,13,0.00
2013-11-30,35.5,29.1,21.0,23.9,18.9,15.7,83,66,49,30.74,30.42,1,0,6,0.00
2013-12-1,44.6,35.8,25.0,32.5,26.8,20.8,86,70,53,30.40,30.03,3,0,7,0.00
2013-12-2,46.9,41.4,37.8,36.2,34.5,32.0,84,77,63,30.03,29.89,0,0,2,0.00
2013-12-3,56.4,43.6,36.4,39.7,35.7,33.2,88,75,51,30.00,29.89,3,0,9,0.00
2013-12-4,53.4,45.0,34.1,47.6,40.6,31.7,94,85,73,30.10,30.00,1,0,5,0.00
2013-12-5,66.0,57.0,49.6,59.9,53.7,47.4,97,89,75,30.09,29.92,5,1,12,0.00
2013-12-6,62.7,48.3,35.5,61.3,46.9,34.4,96,95,91,30.17,29.88,4,1,19,0.76
2013-12-7,41.1,34.7,28.9,35.0,29.5,21.7,96,82,66,30.55,30.13,3,1,15,0.09
2013-12-8,29.4,26.7,24.3,28.0,22.3,18.1,95,84,70,30.61,30.31,1,0,8,0.50
2013-12-9,34.8,32.1,29.3,33.0,30.7,27.8,96,95,93,30.32,30.05,2,0,8,0.12
2013-12-10,36.2,29.9,22.2,32.7,27.4,18.6,97,91,76,30.22,30.00,5,0,18,0.12
2013-12-11,36.0,24.3,15.6,20.9,17.6,12.9,91,77,46,30.42,30.22,4,1,13,0.00
2013-12-12,29.4,24.1,19.7,21.8,12.6,6.5,89,62,43,30.44,30.27,6,1,15,0.00
2013-12-13,38.4,28.9,18.3,23.4,15.6,8.1,76,58,39,30.34,30.24,8,2,16,0.00
2013-12-14,37.1,32.7,29.9,33.4,27.4,22.5,96,81,58,30.35,29.72,3,0,9,0.38
2013-12-15,43.2,33.5,30.1,34.7,28.0,21.4,96,81,67,29.92,29.64,7,2,21,0.00
2013-12-16,34.0,31.2,27.0,26.3,21.9,17.4,76,68,61,30.19,29.93,5,1,14,0.00
2013-12-17,35.4,31.3,28.5,30.9,26.9,23.5,92,84,75,30.16,29.93,2,0,8,0.00
2013-12-18,37.0,30.4,24.8,27.0,22.6,20.0,90,74,55,30.21,29.98,8,1,18,0.00
2013-12-19,53.7,35.3,22.6,32.3,25.7,19.2,89,70,41,30.20,30.07,4,0,9,0.00
2013-12-20,53.9,44.6,35.0,39.7,32.9,28.6,79,64,45,30.10,29.98,5,1,10,0.00
2013-12-21,68.7,57.0,44.9,58.2,48.7,38.2,82,74,61,30.00,29.87,7,2,20,0.00
2013-12-22,69.6,63.0,59.9,63.3,59.4,56.9,95,88,78,29.97,29.79,11,3,27,0.05
2013-12-23,61.2,51.9,35.7,58.9,48.2,27.2,97,87,70,30.21,29.87,5,1,20,0.39
2013-12-24,37.3,31.1,21.4,27.6,21.1,9.1,84,67,48,30.45,30.18,8,2,23,0.00
2013-12-25,30.0,23.5,17.5,17.9,12.7,10.0,76,63,47,30.57,30.39,3,0,10,0.00
2013-12-26,43.3,30.1,22.4,26.1,21.4,17.9,87,71,46,30.38,30.22,7,1,18,0.00
2013-12-27,47.9,34.5,24.5,24.5,20.5,16.7,81,59,30,30.41,30.30,6,1,16,0.00
2013-12-28,56.5,40.3,26.7,30.3,25.1,20.9,80,58,30,30.32,30.10,8,1,19,0.00
2013-12-29,44.7,41.6,37.0,43.6,37.4,27.9,96,86,59,30.10,29.52,4,0,13,0.70
2013-12-30,44.2,37.2,29.8,38.9,30.0,19.5,94,75,63,30.17,29.79,4,1,16,0.00
2013-12-31,39.0,31.1,26.4,27.5,19.6,16.2,72,63,48,30.32,30.09,12,2,32,0.00
2014-1-1,44.2,31.8,22.6,29.2,23.0,16.9,92,71,47,30.41,30.13,7,1,16,0.00
2014-1-2,33.9,30.6,23.3,30.8,28.2,20.8,94,91,86,30.13,29.63,1,0,6,0.30